Flag for U.S.A. Weather past 2 weeks in Portland, Oregon, U.S.A.

Now
62 °F

Partly sunny.


Feels Like: 62 °F
Forecast: 52 / 67 °F
Wind: 3 mph from North

Location: Portland International Airport

Current Time: May 25, 2015 at 2:52:44 PM

Latest Report: May 25, 2015 at 1:53 PM


Visibility: 10 mi

Pressure: 30.04 "Hg

Humidity: 60%

Dew point: 48 °F

Location of PortlandLocation

Historic Weather in Portland — Graph

°F

Portland temperature yesterday

Maximum temperature yesterday: 66 °F (at 4:53 PM)
Minimum temperature yesterday: 54 °F (at 3:53 AM)
Average temperature yesterday: 58 °F

Past Weeks' High & Low Weather Summary

 TemperatureHumidityPressure
High78 °F (May 18, 4:53 PM)100% (May 19, 6:53 AM)30.19 "Hg (May 19, 6:53 AM)
Low49 °F (May 12, 6:53 AM)38% (May 14, 3:53 PM)29.78 "Hg (May 14, 6:53 PM)
Average58 °F75%29.99 "Hg
* Reported May 10 12:53 PM — May 25 12:53 PM, Portland, Weather by CustomWeather, © 2015

Note: Actual official high and low records may vary slightly from our data, if they occured in-between our weather recording intervals... More about our weather records

Advertising

Portland weather history for previous 24 hours

 ConditionsComfort  
Time TempWeatherWind HumidityBarometerVisibility
12:53 PM
Mon, May 25
60 °FOvercast.5 mph62%30.05 "Hg10 mi
11:53 AM59 °FMostly cloudy.7 mph64%30.05 "Hg10 mi
10:53 AM58 °FMostly cloudy.5 mph67%30.05 "Hg10 mi
9:53 AM57 °FOvercast.No wind72%30.05 "Hg10 mi
8:53 AM56 °FMore clouds than sun.3 mph75%30.04 "Hg10 mi
7:53 AM55 °FBroken clouds.No wind77%30.04 "Hg10 mi
6:53 AM54 °FMostly cloudy.3 mph77%30.04 "Hg10 mi
5:53 AM53 °FPassing clouds.3 mph80%30.03 "Hg10 mi
4:53 AM53 °FOvercast.6 mph77%30.02 "Hg10 mi
3:53 AM53 °FPassing clouds.7 mph77%30.02 "Hg10 mi
2:53 AM53 °FOvercast.7 mph77%30.03 "Hg10 mi
1:53 AM54 °FOvercast.8 mph77%30.03 "Hg10 mi
12:53 AM54 °FOvercast.8 mph77%30.03 "Hg10 mi
11:53 PM
Sun, May 24
55 °FOvercast.6 mph77%30.03 "Hg10 mi
10:53 PM57 °FOvercast.9 mph72%30.03 "Hg10 mi
9:53 PM59 °FPassing clouds.9 mph69%30.02 "Hg10 mi
8:53 PM61 °FPartly sunny.7 mph67%30.00 "Hg10 mi
7:53 PM64 °FPartly sunny.7 mph65%30.00 "Hg10 mi
6:53 PM66 °FPartly sunny.No wind61%30.01 "Hg10 mi
5:53 PM65 °FBroken clouds.No wind61%30.02 "Hg10 mi
4:53 PM66 °FBroken clouds.No wind59%30.04 "Hg10 mi
3:53 PM64 °FOvercast.3 mph61%30.07 "Hg10 mi
2:53 PM62 °FMostly cloudy.3 mph65%30.09 "Hg10 mi
Weather by CustomWeather, © 2015

See weather overviewHow to use our weather pages